When you browse on this site, cookies collect data to enhance your experience and personalize the content and advertising you see.
Visit our Privacy Policy to learn more. By continuing to use the site, you agree to this use of cookies and data.
  • In Czech Republic
  • List of Countries
  • For 7 days
  • Water Temperature
  • Satellite Maps
  • Weather Map
  • Weather Widgets
  • user-avatar
    Login

    Hourly Weather Ad-Dauha

    Today, 19 April, Friday

    Time Temperature Precipitation Wind Pressure Humidity
    00:00 +30°C° 0 mm 3 mps 756 mmHg 37%
    01:00 +30°C° 0 mm 4 mps 755 mmHg 38%
    02:00 +30°C° 0 mm 5 mps 755 mmHg 39%
    03:00 +29°C° 0 mm 4 mps 754 mmHg 42%
    04:00 +29°C° 0 mm 5 mps 755 mmHg 44%
    05:00 +29°C° 0 mm 5 mps 755 mmHg 47%
    06:00 +29°C° 0 mm 6 mps 755 mmHg 49%
    07:00 +30°C° 0 mm 6 mps 755 mmHg 42%
    08:00 +33°C° 0 mm 6 mps 755 mmHg 35%
    09:00 +35°C° 0 mm 7 mps 756 mmHg 25%
    10:00 +38°C° 0 mm 7 mps 755 mmHg 21%
    11:00 +39°C° 0 mm 7 mps 755 mmHg 17%
    12:00 +41°C° 0 mm 6 mps 755 mmHg 13%
    13:00 +41°C° 0 mm 6 mps 755 mmHg 14%
    14:00 +41°C° 0 mm 6 mps 754 mmHg 14%
    15:00 +41°C° 0 mm 6 mps 754 mmHg 14%
    16:00 +40°C° 0 mm 6 mps 753 mmHg 17%
    17:00 +39°C° 0 mm 6 mps 753 mmHg 19%
    18:00 +36°C° 0 mm 6 mps 753 mmHg 22%
    19:00 +35°C° 0 mm 6 mps 754 mmHg 25%
    20:00 +34°C° 0 mm 7 mps 754 mmHg 28%
    21:00 +33°C° 0 mm 7 mps 754 mmHg 31%
    22:00 +33°C° 0 mm 6 mps 754 mmHg 34%
    23:00 +32°C° 0 mm 5 mps 754 mmHg 36%

    Tomorrow, 20 April, Saturday

    Time Temperature Precipitation Wind Pressure Humidity
    00:00 +32°C° 0 mm 4 mps 754 mmHg 38%
    01:00 +30°C° 0 mm 3 mps 753 mmHg 39%
    02:00 +30°C° 0 mm 2 mps 753 mmHg 40%
    03:00 +29°C° 0 mm 1 mps 753 mmHg 41%
    04:00 +29°C° 0 mm 2 mps 753 mmHg 42%
    05:00 +29°C° 0 mm 3 mps 753 mmHg 44%
    06:00 +29°C° 0 mm 4 mps 754 mmHg 45%
    07:00 +30°C° 0 mm 3 mps 754 mmHg 43%
    08:00 +33°C° 0 mm 3 mps 754 mmHg 40%
    09:00 +34°C° 0 mm 3 mps 754 mmHg 38%
    10:00 +35°C° 0 mm 3 mps 754 mmHg 33%
    11:00 +37°C° 0 mm 3 mps 754 mmHg 29%
    12:00 +38°C° 0 mm 3 mps 754 mmHg 24%
    13:00 +38°C° 0 mm 3 mps 753 mmHg 24%
    14:00 +39°C° 0 mm 2 mps 753 mmHg 23%
    15:00 +39°C° 0 mm 2 mps 752 mmHg 22%
    16:00 +38°C° 0 mm 3 mps 752 mmHg 24%
    17:00 +37°C° 0 mm 3 mps 752 mmHg 25%
    18:00 +36°C° 0 mm 3 mps 752 mmHg 27%
    19:00 +35°C° 0 mm 4 mps 753 mmHg 30%
    20:00 +34°C° 0 mm 4 mps 753 mmHg 33%
    21:00 +33°C° 0 mm 5 mps 753 mmHg 36%
    22:00 +32°C° 0 mm 5 mps 753 mmHg 40%
    23:00 +30°C° 0 mm 5 mps 753 mmHg 45%

    Day after tomorrow, 21 April, Sunday

    Time Temperature Precipitation Wind Pressure Humidity
    00:00 +30°C° 0 mm 5 mps 753 mmHg 49%
    01:00 +29°C° 0 mm 5 mps 753 mmHg 52%
    02:00 +29°C° 0 mm 5 mps 753 mmHg 54%
    03:00 +28°C° 0 mm 5 mps 752 mmHg 57%
    04:00 +28°C° 0 mm 5 mps 753 mmHg 56%
    05:00 +28°C° 0 mm 5 mps 753 mmHg 54%
    06:00 +28°C° 0 mm 5 mps 753 mmHg 52%
    07:00 +29°C° 0 mm 5 mps 754 mmHg 48%
    08:00 +30°C° 0 mm 5 mps 754 mmHg 44%
    09:00 +32°C° 0 mm 4 mps 754 mmHg 39%
    10:00 +33°C° 0.1 mm 4 mps 754 mmHg 37%
    11:00 +34°C° 0.1 mm 5 mps 754 mmHg 36%
    12:00 +35°C° 0.1 mm 5 mps 754 mmHg 34%
    13:00 +34°C° 0.2 mm 5 mps 753 mmHg 35%
    14:00 +34°C° 0.2 mm 5 mps 753 mmHg 37%
    15:00 +33°C° 0.2 mm 5 mps 752 mmHg 39%
    16:00 +33°C° 0.2 mm 4 mps 752 mmHg 41%
    17:00 +32°C° 0.2 mm 4 mps 752 mmHg 43%
    18:00 +30°C° 0.2 mm 3 mps 752 mmHg 45%
    19:00 +30°C° 0.2 mm 4 mps 752 mmHg 46%
    20:00 +30°C° 0.2 mm 4 mps 753 mmHg 46%
    21:00 +29°C° 0.2 mm 4 mps 753 mmHg 47%
    22:00 +29°C° 0.1 mm 3 mps 753 mmHg 48%
    23:00 +29°C° 0.1 mm 2 mps 753 mmHg 49%

    22 April, Monday

    Time Temperature Precipitation Wind Pressure Humidity
    00:00 +29°C° 0.1 mm 1 mps 753 mmHg 50%
    01:00 +29°C° 0.1 mm 1 mps 752 mmHg 51%
    02:00 +28°C° 0.1 mm 1 mps 752 mmHg 51%
    03:00 +28°C° 0.1 mm 1 mps 752 mmHg 51%
    04:00 +28°C° 0.1 mm 1 mps 752 mmHg 51%
    05:00 +28°C° 0.1 mm 2 mps 752 mmHg 51%
    06:00 +28°C° 0.1 mm 2 mps 753 mmHg 52%
    07:00 +29°C° 0 mm 3 mps 753 mmHg 50%
    08:00 +29°C° 0 mm 3 mps 753 mmHg 48%
    09:00 +30°C° 0 mm 3 mps 754 mmHg 46%
    10:00 +33°C° 0 mm 4 mps 754 mmHg 42%
    11:00 +34°C° 0 mm 4 mps 754 mmHg 39%
    12:00 +36°C° 0 mm 4 mps 753 mmHg 35%
    13:00 +37°C° 0 mm 4 mps 753 mmHg 32%
    14:00 +38°C° 0 mm 4 mps 753 mmHg 30%
    15:00 +40°C° 0 mm 4 mps 752 mmHg 27%
    16:00 +37°C° 0 mm 4 mps 753 mmHg 32%
    17:00 +35°C° 0 mm 5 mps 753 mmHg 36%
    18:00 +34°C° 0 mm 5 mps 753 mmHg 41%
    19:00 +33°C° 0 mm 6 mps 754 mmHg 44%
    20:00 +32°C° 0 mm 6 mps 754 mmHg 48%
    21:00 +30°C° 0 mm 7 mps 755 mmHg 51%
    22:00 +29°C° 0 mm 7 mps 755 mmHg 52%
    23:00 +29°C° 0 mm 8 mps 755 mmHg 53%

    23 April, Tuesday

    Time Temperature Precipitation Wind Pressure Humidity
    00:00 +28°C° 0 mm 8 mps 755 mmHg 54%
    01:00 +28°C° 0 mm 9 mps 755 mmHg 51%
    02:00 +27°C° 0 mm 10 mps 755 mmHg 48%
    03:00 +27°C° 0 mm 11 mps 755 mmHg 45%
    04:00 +27°C° 0 mm 12 mps 756 mmHg 42%
    05:00 +27°C° 0 mm 12 mps 756 mmHg 40%
    06:00 +27°C° 0 mm 12 mps 757 mmHg 38%
    07:00 +27°C° 0 mm 12 mps 757 mmHg 36%
    08:00 +28°C° 0 mm 11 mps 758 mmHg 34%
    09:00 +28°C° 0 mm 11 mps 759 mmHg 32%
    10:00 +29°C° 0 mm 11 mps 759 mmHg 29%
    11:00 +31°C° 0 mm 11 mps 759 mmHg 27%
    12:00 +31°C° 0 mm 11 mps 759 mmHg 24%
    13:00 +31°C° 0 mm 11 mps 758 mmHg 25%
    14:00 +29°C° 0 mm 11 mps 758 mmHg 26%
    15:00 +29°C° 0 mm 11 mps 758 mmHg 27%
    16:00 +28°C° 0 mm 11 mps 758 mmHg 30%
    17:00 +27°C° 0 mm 11 mps 758 mmHg 33%
    18:00 +26°C° 0 mm 12 mps 759 mmHg 35%
    19:00 +24°C° 0 mm 11 mps 759 mmHg 34%
    20:00 +24°C° 0 mm 11 mps 760 mmHg 33%
    21:00 +24°C° 0 mm 10 mps 760 mmHg 32%
    22:00 +24°C° 0 mm 10 mps 760 mmHg 33%
    23:00 +24°C° 0 mm 9 mps 759 mmHg 33%

    24 April, Wednesday

    Time Temperature Precipitation Wind Pressure Humidity
    00:00 +24°C° 0 mm 9 mps 759 mmHg 33%
    01:00 +23°C° 0 mm 9 mps 759 mmHg 35%
    02:00 +23°C° 0 mm 9 mps 759 mmHg 37%
    03:00 +23°C° 0 mm 9 mps 759 mmHg 38%
    04:00 +23°C° 0 mm 9 mps 759 mmHg 41%
    05:00 +23°C° 0 mm 8 mps 760 mmHg 44%
    06:00 +23°C° 0 mm 8 mps 760 mmHg 47%
    07:00 +24°C° 0 mm 9 mps 760 mmHg 41%
    08:00 +26°C° 0 mm 10 mps 761 mmHg 34%
    09:00 +28°C° 0 mm 10 mps 761 mmHg 28%
    10:00 +28°C° 0 mm 10 mps 761 mmHg 27%
    11:00 +29°C° 0 mm 10 mps 760 mmHg 26%
    12:00 +29°C° 0 mm 10 mps 760 mmHg 25%
    13:00 +29°C° 0 mm 10 mps 760 mmHg 26%
    14:00 +29°C° 0 mm 10 mps 759 mmHg 27%
    15:00 +28°C° 0 mm 10 mps 759 mmHg 27%
    16:00 +28°C° 0 mm 10 mps 759 mmHg 29%
    17:00 +27°C° 0 mm 10 mps 759 mmHg 31%
    18:00 +26°C° 0 mm 9 mps 759 mmHg 32%
    19:00 +26°C° 0 mm 9 mps 760 mmHg 33%
    20:00 +24°C° 0 mm 8 mps 760 mmHg 34%
    21:00 +24°C° 0 mm 8 mps 760 mmHg 36%
    22:00 +24°C° 0 mm 8 mps 760 mmHg 36%
    23:00 +23°C° 0 mm 7 mps 759 mmHg 37%
    Show more